This is the latest recevied weather packets stored in our database for station/object KF7SOJ. If no packets are shown the sender has not sent any weather packets the latest 10 day(s).
| Time | Temp. | Humidity | Pressure | Rain* | Wind** | Luminosity | Snow |
|---|---|---|---|---|---|---|---|
| 1777821908 | 15° C | 51% | 931.1 hPa | 0 mm | - | 532 W/m² | - |
| 1777821605 | 15° C | 50% | 931 hPa | 0 mm | - | 516 W/m² | - |
| 1777821304 | 14.44° C | 51% | 931.3 hPa | 0 mm | - | 499 W/m² | - |
| 1777821000 | 14.44° C | 51% | 931.3 hPa | 0 mm | - | 482 W/m² | - |
| 1777820696 | 14.44° C | 52% | 931.3 hPa | 0 mm | - | 464 W/m² | - |
| 1777820392 | 13.89° C | 53% | 931.3 hPa | 0 mm | - | 447 W/m² | - |
| 1777820090 | 13.89° C | 55% | 931.4 hPa | 0 mm | - | 429 W/m² | - |
| 1777819787 | 13.33° C | 57% | 931.6 hPa | 0 mm | - | 410 W/m² | - |
| 1777819485 | 13.33° C | 60% | 931.6 hPa | 0 mm | - | 392 W/m² | - |
| 1777819183 | 12.78° C | 59% | 931.5 hPa | 0 mm | - | 373 W/m² | - |
| 1777818879 | 12.78° C | 60% | 931.7 hPa | 0 mm | - | 354 W/m² | - |
| 1777818575 | 12.22° C | 62% | 931.5 hPa | 0 mm | - | 336 W/m² | - |
| 1777818273 | 11.67° C | 62% | 931.7 hPa | 0 mm | - | 319 W/m² | - |
| 1777817969 | 11.67° C | 63% | 931.8 hPa | 0 mm | - | 301 W/m² | - |
| 1777817666 | 11.67° C | 64% | 931.9 hPa | 0 mm | - | 280 W/m² | - |
| 1777817363 | 11.11° C | 64% | 931.9 hPa | 0 mm | - | 259 W/m² | - |
| 1777817060 | 11.11° C | 64% | 931.9 hPa | 0 mm | - | 245 W/m² | - |
| 1777816756 | 10.56° C | 65% | 931.8 hPa | 0 mm | - | 227 W/m² | - |
| 1777816454 | 10.56° C | 67% | 931.8 hPa | 0 mm | - | 211 W/m² | - |
| 1777816151 | 10° C | 68% | 931.9 hPa | 0 mm | - | 194 W/m² | - |
| 1777815849 | 10° C | 70% | 932 hPa | 0 mm | - | 176 W/m² | - |
| 1777815546 | 10° C | 70% | 931.9 hPa | 0 mm | - | 162 W/m² | - |
| 1777815244 | 9.44° C | 72% | 931.9 hPa | 0 mm | - | 149 W/m² | - |
| 1777814939 | 9.44° C | 70% | 932 hPa | 0 mm | - | 66 W/m² | - |
| 1777814636 | 10° C | 69% | 931.9 hPa | 0 mm | - | 67 W/m² | - |
* Rain latest hour (hover to see other rain measurements)
** Current wind speed in m/s (hover to see current wind gust speed)